(°C)
(°C)
NNO
NNO
NNO
NNO
NNO
NNO
NNO
(km/h)
6-15
6-14
6-14
6-14
5-14
5-14
5-14
(mm)
0
0
0
0
0
0
0
(%)
30
30
20
10
0
0
0

Sonnenhöhe

/ -19.4°
sun-icon
UV 0
07:34
16:21
Abnehmender Halbmond (334°)
05:27
15:18

METAR für Renton (KRNT)

Zeit Bedingungen Temperatur/
Taupunkt
Wind Sichtweite Wetter Wolken Druck Änderung Roh
VFR 7.8°C / 2.8°C 360º 7kt >10km - Overcast 6000ft 1028 - KRNT 030153Z AUTO 36007KT 10SM OVC060 08/03 A3035 RMK AO2 SLP282 T00780028
VFR 7.8°C / 2.2°C 350º 5kt >10km - Overcast 6000ft 1028 - KRNT 030053Z AUTO 35005KT 10SM OVC060 08/02 A3035 RMK AO2 SLP281 T00780022
VFR 7.8°C / 2.8°C 340º 10kt >10km - Few Clouds 4100ft
Overcast 5500ft
1027 - KRNT 022353Z 34010KT 10SM FEW041 OVC055 08/03 A3033 RMK AO2 SLP276 60000 T00780028 10089 20072 51002
VFR 8.3°C / 4.4°C variable 0kt >10km 0.13mm precipitation Overcast 4100ft 1027 - KRNT 022253Z 00000KT 10SM OVC041 08/04 A3033 RMK AO2 RAE31 SLP275 P0000 T00830044
VFR 7.8°C / 3.9°C variable 0kt >10km Light Rain 0.13mm precipitation Overcast 3300ft - KRNT 022204Z 00000KT 9SM -RA OVC033 08/04 A3033 RMK AO2 P0000 T00780039
MVFR 7.2°C / 3.9°C 360º 5kt >10km Light Rain 0.13mm precipitation Few Clouds 1800ft
Broken Clouds 2700ft
Overcast 3300ft
1027 - KRNT 022153Z 36005KT 8SM -RA FEW018 BKN027 OVC033 07/04 A3033 RMK AO2 SLP275 P0000 T00720039
MVFR 8.3°C / 4.4°C variable 6kt >10km Light Rain 0.13mm precipitation Scattered Clouds 1900ft
Broken Clouds 2300ft
Overcast 3800ft
- KRNT 022128Z VRB06KT 9SM -RA SCT019 BKN023 OVC038 08/04 A3033 RMK AO2 P0000 T00830044
VFR 8.3°C / 5°C 10º 5kt >10km Light Rain 0.13mm precipitation Scattered Clouds 1900ft
Overcast 3800ft
- KRNT 022119Z 01005KT 9SM -RA SCT019 OVC038 08/05 A3032 RMK AO2 P0000 T00830050
MVFR 8.9°C / 4.4°C 20º 5kt >10km Light Rain 0.13mm precipitation Broken Clouds 2300ft
Overcast 3800ft
1027 - KRNT 022053Z 02005KT 9SM -RA BKN023 OVC038 09/04 A3033 RMK AO2 RAB53 SLP274 P0000 60000 T00890044 51010
MVFR 8.9°C / 5°C 360º 4kt >10km - Broken Clouds 2300ft
Broken Clouds 2800ft
Overcast 4000ft
- KRNT 022046Z 36004KT 10SM BKN023 BKN028 OVC040 09/05 A3032 RMK AO2 T00890050
VFR 8.9°C / 4.4°C 10º 3kt >10km 0.13mm precipitation Few Clouds 3600ft
Overcast 5500ft
1026 - KRNT 021953Z 01003KT 10SM FEW036 OVC055 09/04 A3031 RMK AO2 RAB21E48 SLP268 P0000 T00890044
VFR 8.9°C / 5°C 360º 4kt >10km 0.13mm precipitation Broken Clouds 3400ft
Overcast 4900ft
1027 - KRNT 021853Z 36004KT 10SM BKN034 OVC049 09/05 A3031 RMK AO2 RAE1757 SLP270 P0000 T00890050
VFR 8.3°C / 6.7°C variable 0kt >10km Light Rain 0.25mm precipitation Overcast 3500ft 1026 - KRNT 021753Z 00000KT 9SM -RA OVC035 08/07 A3029 RMK AO2 SLP263 P0001 60009 T00830067 10111 20078 51022
VFR 8.3°C / 6.1°C variable 0kt 9700m Light Rain Mist 0.25mm precipitation Scattered Clouds 2200ft
Scattered Clouds 3000ft
Overcast 3500ft
- KRNT 021742Z 00000KT 6SM -RA BR SCT022 SCT030 OVC035 08/06 A3029 RMK AO2 P0001 T00830061
MVFR 7.8°C / 6.1°C 210º 3kt 6400m Light Rain Mist 0.25mm precipitation Broken Clouds 2000ft
Broken Clouds 2900ft
Overcast 3500ft
- KRNT 021716Z 21003KT 4SM -RA BR BKN020 BKN029 OVC035 08/06 A3029 RMK AO2 P0001 T00780061
IFR 7.8°C / 6.1°C variable 0kt 4000m Light Rain Mist 0.25mm precipitation Scattered Clouds 1800ft
Broken Clouds 2500ft
Overcast 3500ft
- KRNT 021700Z 00000KT 2 1/2SM -RA BR SCT018 BKN025 OVC035 08/06 A3028 RMK AO2 P0001 T00780061
MVFR 7.8°C / 6.1°C variable 0kt 4800m Light Rain Mist 1.02mm precipitation Broken Clouds 1800ft
Broken Clouds 2500ft
Overcast 3700ft
1025 - KRNT 021653Z 00000KT 3SM -RA BR BKN018 BKN025 OVC037 08/06 A3028 RMK AO2 RAE14B33 SLP258 P0004 T00780061
MVFR 8.3°C / 6.1°C variable 0kt 4800m Light Rain Mist 0.13mm precipitation Broken Clouds 1800ft
Overcast 3000ft
- KRNT 021635Z 00000KT 3SM -RA BR BKN018 OVC030 08/06 A3027 RMK AO2 RAE14B33 P0000 T00830061
MVFR 8.3°C / 6.1°C variable 0kt 4800m Mist 0.13mm precipitation Scattered Clouds 2100ft
Overcast 3000ft
- KRNT 021615Z 00000KT 3SM BR SCT021 OVC030 08/06 A3025 RMK AO2 RAE14 P0000 T00830061
MVFR 8.3°C / 6.1°C variable 0kt 4800m Light Rain Mist 0.25mm precipitation Broken Clouds 2100ft
Overcast 2800ft
1025 - KRNT 021553Z 00000KT 3SM -RA BR BKN021 OVC028 08/06 A3026 RMK AO2 SLP251 P0001 T00830061
MVFR 8.9°C / 6.1°C variable 0kt 9700m Light Rain 0.76mm precipitation Overcast 2100ft 1024 - KRNT 021453Z AUTO 00000KT 6SM -RA OVC021 09/06 A3023 RMK AO2 RAB19 SLP241 P0003 60003 T00890061 53012
MVFR 8.9°C / 6.7°C 50º 4kt 6400m Light Rain Mist 0.76mm precipitation Overcast 1700ft - KRNT 021441Z AUTO 05004KT 4SM -RA BR OVC017 09/07 A3023 RMK AO2 RAB19 P0003 T00890067
MVFR 10°C / 6.7°C 320º 8kt >10km - Broken Clouds 2000ft
Broken Clouds 2600ft
Overcast 3200ft
1023 - KRNT 021353Z AUTO 32008KT 10SM BKN020 BKN026 OVC032 10/07 A3021 RMK AO2 SLP234 T01000067
MVFR 10°C / 7°C 320º 8kt >10km - Broken Clouds 2000ft
Broken Clouds 2600ft
Overcast 3200ft
- KRNT 021349Z AUTO 32008KT 10SM BKN020 BKN026 OVC032 10/07 A3021 RMK AO2

VFR

7.8°C / 2.8°C

[Mehr]
Wind 360º 7kt
Sichtweite >10km
Wetter -
Wolken Overcast 6000ft
Druck 1028
Änderung -
Roh KRNT 030153Z AUTO 36007KT 10SM OVC060 08/03 A3035 RMK AO2 SLP282 T00780028

VFR

7.8°C / 2.2°C

[Mehr]
Wind 350º 5kt
Sichtweite >10km
Wetter -
Wolken Overcast 6000ft
Druck 1028
Änderung -
Roh KRNT 030053Z AUTO 35005KT 10SM OVC060 08/02 A3035 RMK AO2 SLP281 T00780022

VFR

7.8°C / 2.8°C

[Mehr]
Wind 340º 10kt
Sichtweite >10km
Wetter -
Wolken Few Clouds 4100ft
Overcast 5500ft
Druck 1027
Änderung -
Roh KRNT 022353Z 34010KT 10SM FEW041 OVC055 08/03 A3033 RMK AO2 SLP276 60000 T00780028 10089 20072 51002

VFR

8.3°C / 4.4°C

[Mehr]
Wind variable 0kt
Sichtweite >10km
Wetter 0.13mm precipitation
Wolken Overcast 4100ft
Druck 1027
Änderung -
Roh KRNT 022253Z 00000KT 10SM OVC041 08/04 A3033 RMK AO2 RAE31 SLP275 P0000 T00830044

VFR

7.8°C / 3.9°C

[Mehr]
Wind variable 0kt
Sichtweite >10km
Wetter Light Rain 0.13mm precipitation
Wolken Overcast 3300ft
Druck
Änderung -
Roh KRNT 022204Z 00000KT 9SM -RA OVC033 08/04 A3033 RMK AO2 P0000 T00780039

MVFR

7.2°C / 3.9°C

[Mehr]
Wind 360º 5kt
Sichtweite >10km
Wetter Light Rain 0.13mm precipitation
Wolken Few Clouds 1800ft
Broken Clouds 2700ft
Overcast 3300ft
Druck 1027
Änderung -
Roh KRNT 022153Z 36005KT 8SM -RA FEW018 BKN027 OVC033 07/04 A3033 RMK AO2 SLP275 P0000 T00720039

MVFR

8.3°C / 4.4°C

[Mehr]
Wind variable 6kt
Sichtweite >10km
Wetter Light Rain 0.13mm precipitation
Wolken Scattered Clouds 1900ft
Broken Clouds 2300ft
Overcast 3800ft
Druck
Änderung -
Roh KRNT 022128Z VRB06KT 9SM -RA SCT019 BKN023 OVC038 08/04 A3033 RMK AO2 P0000 T00830044

VFR

8.3°C / 5°C

[Mehr]
Wind 10º 5kt
Sichtweite >10km
Wetter Light Rain 0.13mm precipitation
Wolken Scattered Clouds 1900ft
Overcast 3800ft
Druck
Änderung -
Roh KRNT 022119Z 01005KT 9SM -RA SCT019 OVC038 08/05 A3032 RMK AO2 P0000 T00830050

MVFR

8.9°C / 4.4°C

[Mehr]
Wind 20º 5kt
Sichtweite >10km
Wetter Light Rain 0.13mm precipitation
Wolken Broken Clouds 2300ft
Overcast 3800ft
Druck 1027
Änderung -
Roh KRNT 022053Z 02005KT 9SM -RA BKN023 OVC038 09/04 A3033 RMK AO2 RAB53 SLP274 P0000 60000 T00890044 51010

MVFR

8.9°C / 5°C

[Mehr]
Wind 360º 4kt
Sichtweite >10km
Wetter -
Wolken Broken Clouds 2300ft
Broken Clouds 2800ft
Overcast 4000ft
Druck
Änderung -
Roh KRNT 022046Z 36004KT 10SM BKN023 BKN028 OVC040 09/05 A3032 RMK AO2 T00890050

VFR

8.9°C / 4.4°C

[Mehr]
Wind 10º 3kt
Sichtweite >10km
Wetter 0.13mm precipitation
Wolken Few Clouds 3600ft
Overcast 5500ft
Druck 1026
Änderung -
Roh KRNT 021953Z 01003KT 10SM FEW036 OVC055 09/04 A3031 RMK AO2 RAB21E48 SLP268 P0000 T00890044

VFR

8.9°C / 5°C

[Mehr]
Wind 360º 4kt
Sichtweite >10km
Wetter 0.13mm precipitation
Wolken Broken Clouds 3400ft
Overcast 4900ft
Druck 1027
Änderung -
Roh KRNT 021853Z 36004KT 10SM BKN034 OVC049 09/05 A3031 RMK AO2 RAE1757 SLP270 P0000 T00890050

VFR

8.3°C / 6.7°C

[Mehr]
Wind variable 0kt
Sichtweite >10km
Wetter Light Rain 0.25mm precipitation
Wolken Overcast 3500ft
Druck 1026
Änderung -
Roh KRNT 021753Z 00000KT 9SM -RA OVC035 08/07 A3029 RMK AO2 SLP263 P0001 60009 T00830067 10111 20078 51022

VFR

8.3°C / 6.1°C

[Mehr]
Wind variable 0kt
Sichtweite 9700m
Wetter Light Rain Mist 0.25mm precipitation
Wolken Scattered Clouds 2200ft
Scattered Clouds 3000ft
Overcast 3500ft
Druck
Änderung -
Roh KRNT 021742Z 00000KT 6SM -RA BR SCT022 SCT030 OVC035 08/06 A3029 RMK AO2 P0001 T00830061

MVFR

7.8°C / 6.1°C

[Mehr]
Wind 210º 3kt
Sichtweite 6400m
Wetter Light Rain Mist 0.25mm precipitation
Wolken Broken Clouds 2000ft
Broken Clouds 2900ft
Overcast 3500ft
Druck
Änderung -
Roh KRNT 021716Z 21003KT 4SM -RA BR BKN020 BKN029 OVC035 08/06 A3029 RMK AO2 P0001 T00780061

IFR

7.8°C / 6.1°C

[Mehr]
Wind variable 0kt
Sichtweite 4000m
Wetter Light Rain Mist 0.25mm precipitation
Wolken Scattered Clouds 1800ft
Broken Clouds 2500ft
Overcast 3500ft
Druck
Änderung -
Roh KRNT 021700Z 00000KT 2 1/2SM -RA BR SCT018 BKN025 OVC035 08/06 A3028 RMK AO2 P0001 T00780061

MVFR

7.8°C / 6.1°C

[Mehr]
Wind variable 0kt
Sichtweite 4800m
Wetter Light Rain Mist 1.02mm precipitation
Wolken Broken Clouds 1800ft
Broken Clouds 2500ft
Overcast 3700ft
Druck 1025
Änderung -
Roh KRNT 021653Z 00000KT 3SM -RA BR BKN018 BKN025 OVC037 08/06 A3028 RMK AO2 RAE14B33 SLP258 P0004 T00780061

MVFR

8.3°C / 6.1°C

[Mehr]
Wind variable 0kt
Sichtweite 4800m
Wetter Light Rain Mist 0.13mm precipitation
Wolken Broken Clouds 1800ft
Overcast 3000ft
Druck
Änderung -
Roh KRNT 021635Z 00000KT 3SM -RA BR BKN018 OVC030 08/06 A3027 RMK AO2 RAE14B33 P0000 T00830061

MVFR

8.3°C / 6.1°C

[Mehr]
Wind variable 0kt
Sichtweite 4800m
Wetter Mist 0.13mm precipitation
Wolken Scattered Clouds 2100ft
Overcast 3000ft
Druck
Änderung -
Roh KRNT 021615Z 00000KT 3SM BR SCT021 OVC030 08/06 A3025 RMK AO2 RAE14 P0000 T00830061

MVFR

8.3°C / 6.1°C

[Mehr]
Wind variable 0kt
Sichtweite 4800m
Wetter Light Rain Mist 0.25mm precipitation
Wolken Broken Clouds 2100ft
Overcast 2800ft
Druck 1025
Änderung -
Roh KRNT 021553Z 00000KT 3SM -RA BR BKN021 OVC028 08/06 A3026 RMK AO2 SLP251 P0001 T00830061

MVFR

8.9°C / 6.1°C

[Mehr]
Wind variable 0kt
Sichtweite 9700m
Wetter Light Rain 0.76mm precipitation
Wolken Overcast 2100ft
Druck 1024
Änderung -
Roh KRNT 021453Z AUTO 00000KT 6SM -RA OVC021 09/06 A3023 RMK AO2 RAB19 SLP241 P0003 60003 T00890061 53012

MVFR

8.9°C / 6.7°C

[Mehr]
Wind 50º 4kt
Sichtweite 6400m
Wetter Light Rain Mist 0.76mm precipitation
Wolken Overcast 1700ft
Druck
Änderung -
Roh KRNT 021441Z AUTO 05004KT 4SM -RA BR OVC017 09/07 A3023 RMK AO2 RAB19 P0003 T00890067

MVFR

10°C / 6.7°C

[Mehr]
Wind 320º 8kt
Sichtweite >10km
Wetter -
Wolken Broken Clouds 2000ft
Broken Clouds 2600ft
Overcast 3200ft
Druck 1023
Änderung -
Roh KRNT 021353Z AUTO 32008KT 10SM BKN020 BKN026 OVC032 10/07 A3021 RMK AO2 SLP234 T01000067

MVFR

10°C / 7°C

[Mehr]
Wind 320º 8kt
Sichtweite >10km
Wetter -
Wolken Broken Clouds 2000ft
Broken Clouds 2600ft
Overcast 3200ft
Druck
Änderung -
Roh KRNT 021349Z AUTO 32008KT 10SM BKN020 BKN026 OVC032 10/07 A3021 RMK AO2

Radar- und Niederschlags-Nowcast für Renton

Nieselregen
Leicht
Moderat
Stark
Sehr schwer
Hagel

Die Ortsmarkierung zeigt auf Renton. Diese Animation zeigt das Niederschlagsradar der letzten Stunde, sowie eine 1h Vorhersage. Nieselregen und leichter Schneefall können für das Radar unsichtbar sein. Die Niederschlagsintensität ist farbcodiert von Hellblau bis Orange.

Aktuelle Satellitenbilder für Renton, USA

Die Standortmarkierung ist platziert auf Renton. [Mehr]

Das Echtzeit-Satellitenbild kombiniert sichtbares Licht während des Tages mit Infrarotstrahlung während der Nacht. Nachts ist das Bild nicht dunkel, da Infrarotstrahlung Temperaturunterschiede erkennen kann. Leider sind niedrige Wolken und Nebel nur schwer von den Bodentemperaturen zu unterscheiden und können daher nachts fast unsichtbar sein. Meteosat-Satellitenbilder für Europa werden alle 5 Minuten in Echtzeit aktualisiert. Die Bilder GOES-16 / GOES-17 (Nord- und Südamerika) und Himawari (Asien) werden alle 10 Minuten aktualisiert.